Weather History for Chetumal, Mexico

Change the Weather History Date:

Wednesday, December 5, 2012

  Actual Average Record
Temperature  
Mean Temperature 78 °F -  
Max Temperature 90 °F 80 °F 90 °F (2012)
Min Temperature 65 °F 68 °F 63 °F (2013)
Cooling Degree Days 12    
Growing Degree Days 28 (Base 50)    
Moisture  
Dew Point 71 °F    
Average Humidity 75    
Maximum Humidity 93    
Minimum Humidity 40    
Precipitation  
Precipitation 0.00 in - - ()
Sea Level Pressure  
Sea Level Pressure 30.01 in    
Wind  
Wind Speed 6 mph ()    
Max Wind Speed 12 mph    
Max Gust Speed -    
Visibility 6.6 miles    
Events      
Averages and records for this station are not official NWS values.
T = Trace of Precipitation, MM = Missing Value Source: Averaged Metar Reports

Daily Weather History Graph

Daily Weather History Graph

Search for Another Location

Airport:

Trip Planner

Search our weather history database for the weather conditions in past years. The results will help you decide how hot, cold, wet, or windy it might be!

Date:

Astronomy

Dec. 05, 2012 Rise Set
Actual Time 6:11 AM CST 5:16 PM CST
Civil Twilight 5:48 AM CST 5:39 PM CST
Nautical Twilight 5:21 AM CST 6:06 PM CST
Astronomical Twilight 4:54 AM CST 6:33 PM CST
Moon 11:23 PM CST (12/5) 11:12 AM CST (12/5)
Length of Visible Light 11h 51m
Length of Day
11h 04m
Waning Gibbous, 59% of the Moon is Illuminated
Dec 5
Waning Gibbous
Dec 6
Last Quarter
Dec 13
New
Dec 19
First Quarter
Dec 28
Full

Hourly Weather History & Observations

Time (CST) Temp. Heat Index Dew Point Humidity Pressure Visibility Wind Dir Wind Speed Gust Speed Precip Events Conditions
12:45 AM 78.8 °F - 75.2 °F 89% 30.02 in 7.0 mi SSW 11.5 mph - N/A   Mostly Cloudy
5:50 AM 68 °F - 66 °F 90% 30.04 in 6 mi NW 4.5 mph - -   Scattered Clouds
5:55 AM 78.8 °F - 75.2 °F 89% 30.04 in 7.0 mi Calm Calm - N/A   Scattered Clouds
6:45 AM 78.8 °F - 75.2 °F 89% 30.04 in 7.0 mi Calm Calm - N/A   Scattered Clouds
8:45 AM 82.4 °F 89.5 °F 75.2 °F 79% 30.08 in 7.0 mi NNW 5.8 mph - N/A   Scattered Clouds
8:50 AM 77 °F - 70 °F 73% 30.09 in 6 mi NW 4.5 mph - -   Scattered Clouds
9:45 AM 82.4 °F 89.5 °F 75.2 °F 79% 30.07 in 7.0 mi NNW 5.8 mph - N/A   Scattered Clouds
11:45 AM 82.4 °F 89.5 °F 75.2 °F 79% 30.02 in 7.0 mi West 11.5 mph - N/A   Scattered Clouds
11:50 AM 89 °F - 68 °F 40% 30.04 in 6 mi ENE 6.7 mph - -   Partly Cloudy
12:45 PM 84.2 °F 92.3 °F 75.2 °F 74% 29.99 in 7.0 mi North 11.5 mph - N/A   Scattered Clouds
1:45 PM 84.2 °F 92.3 °F 75.2 °F 74% 29.99 in 7.0 mi North 11.5 mph - N/A   Scattered Clouds
2:40 PM 82.4 °F 87.2 °F 71.6 °F 70% 29.96 in 7.0 mi ENE 9.2 mph - N/A   Mostly Cloudy
2:50 PM 88 °F - 70 °F 45% 29.96 in 6 mi East 6.7 mph - -   Scattered Clouds
3:40 PM 82.4 °F 87.2 °F 71.6 °F 70% 29.94 in 7.0 mi NNE 9.2 mph - N/A   Mostly Cloudy
4:43 PM 80.6 °F 84.6 °F 71.6 °F 74% 29.95 in 7.0 mi ENE 9.2 mph - N/A   Mostly Cloudy
5:40 PM 78.8 °F - 69.8 °F 74% 29.96 in 7.0 mi ENE 6.9 mph - N/A   Mostly Cloudy
5:50 PM 79 °F - 69 °F 64% 29.97 in 5 mi East 6.7 mph - -   Partly Cloudy
6:45 PM 78.8 °F - 69.8 °F 74% 29.97 in 7.0 mi NNE 9.2 mph - N/A   Mostly Cloudy
7:45 PM 78.8 °F - 69.8 °F 74% 29.99 in 7.0 mi NNE 6.9 mph - N/A   Mostly Cloudy
8:40 PM 77.0 °F - 68.0 °F 74% 30.00 in 7.0 mi NNE 5.8 mph - N/A   Clear
8:45 PM 76 °F - 70 °F 76% 30.01 in 5 mi ESE 2.2 mph - -   Scattered Clouds
9:40 PM 77.0 °F - 68.0 °F 74% 30.00 in 7.0 mi Calm Calm - N/A   Clear
11:45 PM 71 °F - 69 °F 93% 29.99 in 5 mi SW 2.2 mph - -   Scattered Clouds